Location: Newark
(47.5333°N, 8.7000°E)
Time: 06:34:12
(UTC+00:00)

ISS - Visible Passes

Search period start: 18 September 2020 00:00
Search period end: 28 September 2020 00:00
Orbit: 419 x 420 km, 51.6° (Epoch: 18 September)

Date Brightness Start Highest point End Pass type
(mag) Time Alt. Az. Time Alt. Az. Time Alt. Az.
18 Sep -1.9 18:03:49 10° S 18:05:57 16° SE 18:08:05 10° E visible
18 Sep -2.7 19:38:58 10° WSW 19:41:14 40° SW 19:41:14 40° SW visible
19 Sep -3.7 18:51:41 10° SW 18:54:59 55° SSE 18:56:09 34° E visible
19 Sep -0.7 20:28:36 10° W 20:29:08 14° W 20:29:08 14° W visible
20 Sep -3.0 18:04:32 10° SSW 18:07:39 36° SE 18:10:48 10° ENE visible
20 Sep -2.8 19:41:04 10° W 19:43:52 49° NW 19:43:52 49° NW visible
21 Sep -3.6 18:53:34 10° WSW 18:56:57 73° NNW 18:58:29 29° ENE visible
21 Sep -0.6 20:30:51 10° WNW 20:31:27 14° WNW 20:31:27 14° WNW visible
22 Sep -3.8 18:06:09 10° WSW 18:09:31 82° SSE 18:12:54 10° ENE visible
22 Sep -2.3 19:43:18 10° W 19:45:57 37° NW 19:45:57 37° NW visible
23 Sep -2.9 18:55:44 10° W 18:59:00 46° NNW 19:00:22 28° NE visible
23 Sep -0.4 20:32:58 10° WNW 20:33:20 12° WNW 20:33:20 12° WNW visible
24 Sep -3.2 18:08:09 10° W 18:11:29 56° NNW 18:14:44 11° ENE visible
24 Sep -2.0 19:45:28 10° WNW 19:47:42 31° NW 19:47:42 31° NW visible
25 Sep -2.7 18:57:54 10° WNW 19:01:07 39° N 19:02:01 32° NE visible
25 Sep -0.2 20:34:55 10° WNW 20:34:58 10° WNW 20:34:58 10° WNW visible
26 Sep -2.8 18:10:19 10° W 18:13:32 41° N 18:16:19 13° ENE visible
26 Sep -1.7 19:47:27 10° WNW 19:49:16 28° NW 19:49:16 28° NW visible
27 Sep -3.0 18:59:56 10° WNW 19:03:11 43° N 19:03:33 41° NNE visible
